Weather History for Boonville, MO

Change the Weather History Date:

Monday, December 9, 2013

  Actual Average Record
Temperature  
Mean Temperature 18 °F -  
Max Temperature 24 °F 41 °F 72 °F (1991)
Min Temperature 12 °F 25 °F 5 °F (1958)
Degree Days  
Heating Degree Days 46    
Moisture  
Dew Point 11 °F    
Average Humidity 75    
Maximum Humidity 93    
Minimum Humidity 64    
Precipitation  
Precipitation 0.00 in - - ()
Sea Level Pressure  
Sea Level Pressure 30.28 in    
Wind  
Wind Speed 7 mph (West)    
Max Wind Speed 12 mph    
Max Gust Speed 18 mph    
Visibility 10 miles    
Events      
Averages and records for this station are not official NWS values.
T = Trace of Precipitation, MM = Missing Value Source: NWS Daily Summary

Daily Weather History Graph

Daily Weather History Graph

Search for Another Location

Airport:

Trip Planner

Search our weather history database for the weather conditions in past years. The results will help you decide how hot, cold, wet, or windy it might be!

Date:

Astronomy

Dec. 09, 2013 Rise Set
Actual Time 7:17 AM CST 4:48 PM CST
Civil Twilight 6:48 AM CST 5:18 PM CST
Nautical Twilight 6:14 AM CST 5:51 PM CST
Astronomical Twilight 5:42 AM CST 6:24 PM CST
Moon 12:14 PM CST (12/9) No Moon Set
Length of Visible Light 10h 30m
Length of Day
9h 30m
Waxing Crescent, 51% of the Moon is Illuminated
Dec 9
Waxing Crescent
Dec 17
Full
Dec 25
Last Quarter
Jan 1
New
Jan 7
First Quarter

Hourly Weather History & Observations

Time (CST) Temp. Windchill Dew Point Humidity Pressure Visibility Wind Dir Wind Speed Gust Speed Precip Events Conditions
12:15 AM 24.8 °F 16.9 °F 23.0 °F 93% 30.13 in 10.0 mi West 6.9 mph - N/A   Overcast
12:35 AM 24.4 °F 15.6 °F 21.9 °F 90% 30.14 in 10.0 mi West 8.1 mph - N/A   Overcast
12:55 AM 24.3 °F 14.6 °F 21.4 °F 89% 30.14 in 10.0 mi WNW 9.2 mph - N/A   Overcast
1:15 AM 23.9 °F 13.5 °F 20.3 °F 86% 30.14 in 10.0 mi WNW 10.4 mph - N/A   Overcast
1:35 AM 23.7 °F 12.6 °F 19.6 °F 84% 30.15 in 10.0 mi WNW 11.5 mph 16.1 mph N/A   Overcast
1:55 AM 23.4 °F 14.3 °F 18.5 °F 82% 30.16 in 10.0 mi WNW 8.1 mph 16.1 mph N/A   Overcast
2:15 AM 22.6 °F 13.4 °F 17.6 °F 81% 30.18 in 10.0 mi WNW 8.1 mph 18.4 mph N/A   Overcast
2:35 AM 21.6 °F 11.3 °F 16.0 °F 79% 30.19 in 10.0 mi West 9.2 mph - N/A   Mostly Cloudy
2:55 AM 20.5 °F 10.8 °F 15.4 °F 81% 30.19 in 10.0 mi NW 8.1 mph - N/A   Scattered Clouds
3:15 AM 19.4 °F 10.4 °F 14.7 °F 82% 30.19 in 10.0 mi WNW 6.9 mph - N/A   Scattered Clouds
3:35 AM 18.7 °F 9.5 °F 14.2 °F 83% 30.19 in 10.0 mi WNW 6.9 mph - N/A   Scattered Clouds
3:55 AM 18.1 °F 8.9 °F 13.6 °F 83% 30.21 in 10.0 mi WNW 6.9 mph - N/A   Clear
4:15 AM 17.8 °F 6.6 °F 13.3 °F 83% 30.21 in 10.0 mi WNW 9.2 mph - N/A   Clear
4:35 AM 17.4 °F 8.0 °F 13.1 °F 83% 30.21 in 10.0 mi West 6.9 mph - N/A   Clear
4:55 AM 17.1 °F 6.6 °F 12.7 °F 83% 30.22 in 10.0 mi WNW 8.1 mph - N/A   Clear
5:15 AM 16.5 °F 6.9 °F 12.4 °F 84% 30.23 in 10.0 mi WNW 6.9 mph - N/A   Clear
5:35 AM 16.0 °F 7.4 °F 11.8 °F 84% 30.22 in 10.0 mi WNW 5.8 mph - N/A   Clear
5:55 AM 15.4 °F 8.1 °F 11.7 °F 85% 30.23 in 10.0 mi WNW 4.6 mph - N/A   Clear
6:15 AM 15.1 °F 7.7 °F 11.5 °F 86% 30.23 in 10.0 mi WNW 4.6 mph - N/A   Clear
6:35 AM 14.7 °F 5.9 °F 11.1 °F 86% 30.23 in 10.0 mi NW 5.8 mph - N/A   Clear
6:55 AM 14.5 °F 2.7 °F 10.9 °F 86% 30.21 in 10.0 mi NW 9.2 mph - N/A   Clear
7:15 AM 14.2 °F 6.7 °F 10.8 °F 86% 30.23 in 10.0 mi West 4.6 mph - N/A   Clear
7:35 AM 14.0 °F 6.5 °F 10.4 °F 86% 30.27 in 10.0 mi West 4.6 mph - N/A   Clear
7:55 AM 14.0 °F - 10.4 °F 86% 30.28 in 10.0 mi Calm Calm - N/A   Clear
8:15 AM 14.7 °F 9.0 °F 10.8 °F 84% 30.28 in 10.0 mi SW 3.5 mph - N/A   Clear
8:35 AM 15.4 °F 6.8 °F 11.1 °F 83% 30.31 in 10.0 mi WSW 5.8 mph - N/A   Clear
8:55 AM 16.5 °F 5.1 °F 11.5 °F 81% 30.32 in 10.0 mi West 9.2 mph - N/A   Clear
9:15 AM 17.2 °F 7.8 °F 11.1 °F 77% 30.33 in 10.0 mi West 6.9 mph - N/A   Clear
9:35 AM 17.8 °F 8.5 °F 11.1 °F 75% 30.35 in 10.0 mi WSW 6.9 mph - N/A   Clear
9:55 AM 18.5 °F 9.3 °F 11.3 °F 73% 30.36 in 10.0 mi West 6.9 mph - N/A   Scattered Clouds
10:15 AM 19.0 °F 10.0 °F 11.1 °F 71% 30.36 in 10.0 mi West 6.9 mph - N/A   Mostly Cloudy
10:35 AM 19.0 °F 11.1 °F 11.1 °F 71% 30.37 in 10.0 mi West 5.8 mph - N/A   Mostly Cloudy
10:55 AM 19.8 °F 11.9 °F 11.3 °F 70% 30.37 in 10.0 mi West 5.8 mph - N/A   Mostly Cloudy
11:15 AM 19.9 °F 10.1 °F 11.1 °F 69% 30.37 in 10.0 mi West 8.1 mph - N/A   Overcast
11:35 AM 20.1 °F 9.5 °F 11.1 °F 68% 30.36 in 10.0 mi West 9.2 mph - N/A   Mostly Cloudy
11:55 AM 20.1 °F 12.3 °F 11.1 °F 68% 30.35 in 10.0 mi WNW 5.8 mph - N/A   Mostly Cloudy
12:15 PM 20.1 °F 8.8 °F 11.3 °F 69% 30.33 in 10.0 mi WNW 10.4 mph - N/A   Mostly Cloudy
12:35 PM 20.1 °F 8.1 °F 11.5 °F 69% 30.32 in 10.0 mi WNW 11.5 mph 16.1 mph N/A   Scattered Clouds
12:55 PM 19.9 °F 7.9 °F 11.7 °F 70% 30.33 in 10.0 mi WNW 11.5 mph - N/A   Mostly Cloudy
1:15 PM 19.8 °F 8.3 °F 11.7 °F 71% 30.32 in 10.0 mi NW 10.4 mph - N/A   Overcast
1:35 PM 19.8 °F 8.3 °F 11.7 °F 71% 30.31 in 10.0 mi WNW 10.4 mph 17.3 mph N/A   Overcast
1:55 PM 19.6 °F 9.7 °F 11.1 °F 70% 30.32 in 10.0 mi WNW 8.1 mph 17.3 mph N/A   Overcast
2:15 PM 19.2 °F 9.3 °F 10.9 °F 70% 30.32 in 10.0 mi West 8.1 mph - N/A   Overcast
2:35 PM 19.0 °F 9.0 °F 10.6 °F 70% 30.31 in 10.0 mi WNW 8.1 mph - N/A   Mostly Cloudy
2:55 PM 18.7 °F 7.8 °F 10.9 °F 72% 30.32 in 10.0 mi West 9.2 mph - N/A   Mostly Cloudy
3:15 PM 18.3 °F 8.2 °F 10.9 °F 73% 30.30 in 10.0 mi WNW 8.1 mph - N/A   Mostly Cloudy
3:35 PM 17.6 °F 8.2 °F 9.1 °F 69% 30.30 in 10.0 mi NW 6.9 mph - N/A   Scattered Clouds
3:55 PM 16.9 °F 8.5 °F 6.8 °F 65% 30.30 in 10.0 mi WNW 5.8 mph - N/A   Clear
4:15 PM 16.7 °F 9.6 °F 7.0 °F 66% 30.31 in 10.0 mi WNW 4.6 mph - N/A   Mostly Cloudy
4:35 PM 16.7 °F 9.6 °F 6.8 °F 65% 30.31 in 10.0 mi West 4.6 mph - N/A   Overcast
4:55 PM 16.7 °F 9.6 °F 6.4 °F 64% 30.30 in 10.0 mi NW 4.6 mph - N/A   Overcast
5:15 PM 16.5 °F 9.4 °F 6.6 °F 65% 30.30 in 10.0 mi WNW 4.6 mph - N/A   Overcast
5:35 PM 16.3 °F 9.2 °F 6.6 °F 66% 30.30 in 10.0 mi WNW 4.6 mph - N/A   Mostly Cloudy
5:55 PM 16.3 °F 9.2 °F 6.8 °F 66% 30.31 in 10.0 mi WNW 4.6 mph - N/A   Mostly Cloudy
6:15 PM 16.3 °F 10.8 °F 7.0 °F 67% 30.31 in 10.0 mi West 3.5 mph - N/A   Mostly Cloudy
6:35 PM 16.2 °F 10.6 °F 7.0 °F 67% 30.31 in 10.0 mi West 3.5 mph - N/A   Overcast
6:55 PM 16.2 °F 10.6 °F 7.0 °F 67% 30.31 in 10.0 mi WNW 3.5 mph - N/A   Overcast
7:15 PM 16.2 °F - 7.0 °F 67% 30.30 in 10.0 mi Calm Calm - N/A   Mostly Cloudy
7:35 PM 15.8 °F 10.2 °F 6.6 °F 67% 30.30 in 10.0 mi West 3.5 mph - N/A   Scattered Clouds
7:55 PM 15.8 °F 10.2 °F 6.6 °F 67% 30.30 in 10.0 mi West 3.5 mph - N/A   Scattered Clouds
8:15 PM 15.4 °F 9.8 °F 6.6 °F 68% 30.31 in 10.0 mi West 3.5 mph - N/A   Clear
8:35 PM 15.3 °F 9.6 °F 6.6 °F 69% 30.31 in 10.0 mi West 3.5 mph - N/A   Clear
8:55 PM 15.3 °F - 7.0 °F 70% 30.30 in 10.0 mi Calm Calm - N/A   Mostly Cloudy
9:15 PM 15.1 °F 9.4 °F 6.6 °F 69% 30.31 in 10.0 mi West 3.5 mph - N/A   Mostly Cloudy
9:35 PM 14.9 °F 9.2 °F 5.9 °F 68% 30.30 in 10.0 mi West 3.5 mph - N/A   Scattered Clouds
9:55 PM 14.9 °F 9.2 °F 6.1 °F 68% 30.31 in 10.0 mi WSW 3.5 mph - N/A   Clear
10:15 PM 14.7 °F 7.3 °F 6.1 °F 69% 30.30 in 10.0 mi WSW 4.6 mph - N/A   Clear
10:35 PM 14.4 °F 8.6 °F 5.9 °F 69% 30.30 in 10.0 mi SW 3.5 mph - N/A   Clear
10:55 PM 13.8 °F 8.0 °F 5.7 °F 70% 30.30 in 10.0 mi WSW 3.5 mph - N/A   Clear
11:15 PM 13.6 °F 6.0 °F 5.9 °F 71% 30.30 in 10.0 mi WSW 4.6 mph - N/A   Clear
11:35 PM 13.1 °F 7.1 °F 5.5 °F 72% 30.31 in 10.0 mi West 3.5 mph - N/A   Clear
11:55 PM 12.7 °F - 5.2 °F 72% 30.32 in 10.0 mi Calm Calm - N/A   Clear